User: anonymous   Login
Location: Laterina
(43.5167°N, 11.7167°E)
Time: 23:20:56
(UTC+00:00)
Language:

H-2A R/B - Orbit

View from above orbital plane
View from above orbital plane
View from above satellite
View from above satellite

Ground track
Ground track

The orbit data is extracted from the following two-line orbital elements,

1 27601U 02056E   20331.86588120  .00000118  00000-0  57355-4 0  9995
2 27601  98.2100 359.1509 0072743 153.0375  19.3429 14.31985642937939
Epoch (UTC): 26 November 2020 20:46:52
Eccentricity: 0.0072743
inclination: 98.2100°
perigee height: 733 km
apogee height: 837 km
right ascension of ascending node: 359.1509°
argument of perigee: 153.0375°
revolutions per day: 14.31985642
mean anomaly at epoch: 19.3429°
orbit number at epoch: 93793

The dashed part of the orbit path shows where the satellite is in the earth's shadow,  

DLR